NJE4SG EHRD-EDAV

Flight info

Callsign NJE4SG
Flight time 1h 1m
Altitude 45000
Route ARNEM L620 SUVOX Z718 OSNAD L980 MOBSA DCT GARLU P717 BKD L619 PODUS Z717 GUDOP
Aircraft C25C/M-SDE2E3FGHRWXY/LB1

Departure

Time 2026-05-04 12:36
Airport Rotterdam The Hague Airport (EHRD)

Arrival

Time 2026-05-04 13:37
Airport Eberswalde-Finow Airfield (EDAV)
Time Latitude Longitude Altitude Speed Heading
2026-05-04 12:17 51.95130 4.44039 -5 ft 0 kts 238°
2026-05-04 12:31 51.95124 4.44025 -5 ft 0 kts 229°
2026-05-04 12:32 51.95121 4.44020 -5 ft 4 kts 226°
2026-05-04 12:32 51.95034 4.43812 -5 ft 13 kts 237°
2026-05-04 12:32 51.95042 4.43723 -5 ft 9 kts 326°
2026-05-04 12:33 51.95129 4.43631 -5 ft 21 kts 327°
2026-05-04 12:33 51.95256 4.43512 -5 ft 20 kts 356°
2026-05-04 12:33 51.95351 4.43667 -6 ft 21 kts 56°
2026-05-04 12:33 51.95436 4.43880 -5 ft 23 kts 56°
2026-05-04 12:34 51.95524 4.44104 -5 ft 24 kts 60°
2026-05-04 12:34 51.95612 4.44322 -5 ft 23 kts 56°
2026-05-04 12:34 51.95699 4.44536 -5 ft 22 kts 56°
2026-05-04 12:34 51.95782 4.44746 -5 ft 20 kts 52°
2026-05-04 12:35 51.95868 4.44719 -6 ft 12 kts 323°
2026-05-04 12:35 51.95924 4.44625 -7 ft 10 kts 274°
2026-05-04 12:35 51.95894 4.44536 -8 ft 37 kts 238°
2026-05-04 12:35 51.95518 4.43589 31 ft 154 kts 239°
2026-05-04 12:36 51.94776 4.41707 313 ft 245 kts 239°
2026-05-04 12:36 51.93905 4.39259 1298 ft 238 kts 247°
2026-05-04 12:36 51.93833 4.36632 1851 ft 240 kts 281°
2026-05-04 12:36 51.94361 4.33980 2829 ft 263 kts 301°
2026-05-04 12:37 51.95759 4.31873 3007 ft 279 kts 331°
2026-05-04 12:37 51.97521 4.31205 3427 ft 241 kts 357°
2026-05-04 12:37 51.99047 4.31678 4150 ft 225 kts 22°
2026-05-04 12:37 52.00476 4.33275 4910 ft 279 kts 49°
2026-05-04 12:38 52.01366 4.36175 5695 ft 281 kts 79°
2026-05-04 12:38 52.01270 4.39250 6565 ft 272 kts 106°
2026-05-04 12:38 52.00708 4.42168 7423 ft 269 kts 103°
2026-05-04 12:38 52.00519 4.45169 8294 ft 268 kts 85°
2026-05-04 12:39 52.00757 4.48142 9187 ft 265 kts 83°
2026-05-04 12:39 52.01086 4.51057 10073 ft 273 kts 78°
2026-05-04 12:39 52.01577 4.54225 11167 ft 293 kts 71°
2026-05-04 12:39 52.02667 4.57008 12909 ft 300 kts 46°
2026-05-04 12:40 52.04128 4.59505 14354 ft 310 kts 46°
2026-05-04 12:40 52.05666 4.62032 15763 ft 318 kts 45°
2026-05-04 12:40 52.06822 4.65104 17126 ft 327 kts 75°
2026-05-04 12:40 52.07015 4.68809 18469 ft 333 kts 90°
2026-05-04 12:41 52.07006 4.72622 19614 ft 341 kts 92°
2026-05-04 12:41 52.07041 4.76525 20752 ft 350 kts 89°
2026-05-04 12:41 52.07176 4.80517 21858 ft 358 kts 88°
2026-05-04 12:41 52.07302 4.84602 22972 ft 366 kts 89°
2026-05-04 12:42 52.07395 4.88768 23966 ft 373 kts 90°
2026-05-04 12:42 52.07484 4.93026 24850 ft 379 kts 91°
2026-05-04 12:42 52.07586 4.97351 25698 ft 385 kts 91°
2026-05-04 12:42 52.07693 5.01684 26502 ft 391 kts 91°
2026-05-04 12:43 52.07793 5.06150 27286 ft 397 kts 92°
2026-05-04 12:43 52.07894 5.10666 28066 ft 402 kts 92°
2026-05-04 12:43 52.07991 5.15211 29012 ft 404 kts 92°
2026-05-04 12:43 52.08093 5.19767 29957 ft 403 kts 93°
2026-05-04 12:44 52.08190 5.24317 30710 ft 403 kts 93°
2026-05-04 12:44 52.08283 5.28875 31412 ft 404 kts 93°
2026-05-04 12:44 52.08377 5.33437 32098 ft 404 kts 93°
2026-05-04 12:44 52.08468 5.38011 32773 ft 404 kts 93°
2026-05-04 12:45 52.08559 5.42589 33398 ft 406 kts 93°
2026-05-04 12:45 52.08645 5.47248 33628 ft 417 kts 93°
2026-05-04 12:45 52.08736 5.51944 34332 ft 411 kts 93°
2026-05-04 12:45 52.08826 5.56514 35189 ft 400 kts 92°
2026-05-04 12:46 52.08907 5.61027 35828 ft 398 kts 93°
2026-05-04 12:46 52.08973 5.65003 36198 ft 401 kts 92°
2026-05-04 12:46 52.09048 5.69561 36581 ft 405 kts 92°
2026-05-04 12:46 52.09129 5.74173 36898 ft 410 kts 92°
2026-05-04 12:47 52.09209 5.78838 37215 ft 415 kts 92°
2026-05-04 12:47 52.09283 5.83501 37540 ft 418 kts 92°
2026-05-04 12:47 52.09358 5.88247 37875 ft 421 kts 92°
2026-05-04 12:47 52.09431 5.93022 38215 ft 424 kts 92°
2026-05-04 12:48 52.09503 5.97827 38560 ft 426 kts 92°
2026-05-04 12:48 52.09575 6.02656 38838 ft 427 kts 92°
2026-05-04 12:48 52.09564 6.07490 39107 ft 426 kts 98°
2026-05-04 12:48 52.09176 6.12254 39381 ft 424 kts 103°
2026-05-04 12:49 52.08679 6.16988 39658 ft 425 kts 103°
2026-05-04 12:49 52.08185 6.21737 39939 ft 426 kts 103°
2026-05-04 12:49 52.07692 6.26499 40218 ft 427 kts 103°
2026-05-04 12:49 52.07196 6.31253 40508 ft 427 kts 103°
2026-05-04 12:50 52.06693 6.36012 40801 ft 428 kts 103°
2026-05-04 12:50 52.06185 6.40810 40922 ft 434 kts 103°
2026-05-04 12:50 52.05667 6.45690 40961 ft 441 kts 103°
2026-05-04 12:51 52.04614 6.55578 40980 ft 452 kts 103°
2026-05-04 12:51 52.03525 6.65695 40989 ft 456 kts 103°
2026-05-04 12:52 52.02419 6.75857 40991 ft 458 kts 103°
2026-05-04 12:52 52.00866 6.85868 40988 ft 458 kts 107°
2026-05-04 12:53 51.99300 6.95913 40991 ft 460 kts 107°
2026-05-04 12:53 51.97749 7.06009 40986 ft 463 kts 103°
2026-05-04 12:54 51.97687 7.16445 40977 ft 470 kts 83°
2026-05-04 12:54 51.99612 7.26554 40982 ft 474 kts 68°
2026-05-04 12:55 52.02218 7.36386 40988 ft 474 kts 71°
2026-05-04 12:55 52.04080 7.46648 40992 ft 474 kts 76°
2026-05-04 12:56 52.06117 7.56870 41002 ft 476 kts 72°
2026-05-04 12:56 52.08158 7.67147 41002 ft 477 kts 74°
2026-05-04 12:57 52.10142 7.77384 40998 ft 478 kts 73°
2026-05-04 12:57 52.12165 7.87677 40979 ft 478 kts 73°
2026-05-04 12:58 52.14153 7.98001 40980 ft 478 kts 73°
2026-05-04 12:58 52.16153 8.08332 40975 ft 478 kts 73°
2026-05-04 12:59 52.18126 8.18654 40973 ft 475 kts 73°
2026-05-04 12:59 52.19881 8.28992 40963 ft 471 kts 82°
2026-05-04 13:00 52.20440 8.39572 40952 ft 467 kts 87°
2026-05-04 13:00 52.21878 8.49899 40950 ft 468 kts 71°
2026-05-04 13:01 52.24308 8.59749 40952 ft 468 kts 69°
2026-05-04 13:01 52.26722 8.69607 40955 ft 467 kts 69°
2026-05-04 13:02 52.29137 8.79458 40962 ft 467 kts 69°
2026-05-04 13:02 52.31521 8.89250 40961 ft 466 kts 69°
2026-05-04 13:03 52.33916 8.99115 40960 ft 466 kts 69°
2026-05-04 13:03 52.36295 9.08971 40962 ft 466 kts 69°
2026-05-04 13:04 52.38666 9.18837 40956 ft 465 kts 69°
2026-05-04 13:04 52.41028 9.28708 40959 ft 465 kts 69°
2026-05-04 13:05 52.43384 9.38599 40961 ft 466 kts 69°
2026-05-04 13:05 52.45726 9.48472 40965 ft 468 kts 69°
2026-05-04 13:06 52.48074 9.58421 40963 ft 467 kts 69°
2026-05-04 13:06 52.50406 9.68351 40963 ft 466 kts 69°
2026-05-04 13:07 52.52341 9.76620 40960 ft 466 kts 69°
2026-05-04 13:07 52.54659 9.86568 40961 ft 466 kts 69°
2026-05-04 13:08 52.56967 9.96520 40962 ft 466 kts 69°
2026-05-04 13:08 52.59264 10.06477 40960 ft 465 kts 69°
2026-05-04 13:09 52.61554 10.16448 40960 ft 466 kts 69°
2026-05-04 13:09 52.63837 10.26430 40960 ft 465 kts 69°
2026-05-04 13:10 52.66111 10.36421 40957 ft 465 kts 69°
2026-05-04 13:10 52.68356 10.46338 40955 ft 465 kts 69°
2026-05-04 13:11 52.70610 10.56341 40947 ft 465 kts 69°
2026-05-04 13:11 52.71737 10.61353 40653 ft 468 kts 69°
2026-05-04 13:11 52.72870 10.66411 40054 ft 469 kts 69°
2026-05-04 13:11 52.73992 10.71431 39480 ft 464 kts 70°
2026-05-04 13:12 52.75101 10.76405 38912 ft 459 kts 69°
2026-05-04 13:12 52.76198 10.81339 38271 ft 455 kts 70°
2026-05-04 13:12 52.77285 10.86233 37571 ft 451 kts 70°
2026-05-04 13:12 52.78358 10.91082 36895 ft 448 kts 70°
2026-05-04 13:13 52.79423 10.95902 36237 ft 445 kts 70°
2026-05-04 13:13 52.80479 11.00692 35602 ft 442 kts 70°
2026-05-04 13:13 52.81512 11.05393 34987 ft 440 kts 70°
2026-05-04 13:13 52.82685 11.10042 34379 ft 438 kts 63°
2026-05-04 13:14 52.84230 11.14377 33750 ft 436 kts 54°
2026-05-04 13:14 52.86073 11.18334 33068 ft 433 kts 49°
2026-05-04 13:14 52.87955 11.22233 32399 ft 432 kts 49°
2026-05-04 13:14 52.89822 11.26115 31754 ft 430 kts 50°
2026-05-04 13:15 52.91678 11.29981 31130 ft 428 kts 50°
2026-05-04 13:15 52.93537 11.33857 30509 ft 427 kts 50°
2026-05-04 13:15 52.95384 11.37704 29879 ft 425 kts 50°
2026-05-04 13:15 52.97214 11.41545 29167 ft 423 kts 50°
2026-05-04 13:16 52.98798 11.45579 28489 ft 423 kts 60°
2026-05-04 13:16 53.00040 11.50001 27808 ft 421 kts 70°
2026-05-04 13:16 53.00885 11.54629 27150 ft 418 kts 78°
2026-05-04 13:16 53.01326 11.59381 26507 ft 414 kts 87°
2026-05-04 13:17 53.01364 11.64137 25875 ft 410 kts 96°
2026-05-04 13:17 53.01016 11.68801 25256 ft 404 kts 105°
2026-05-04 13:17 53.00326 11.73294 24654 ft 399 kts 110°
2026-05-04 13:17 52.99574 11.77720 24067 ft 397 kts 109°
2026-05-04 13:18 52.98956 11.82180 23475 ft 405 kts 99°
2026-05-04 13:18 52.98817 11.87086 22790 ft 447 kts 94°
2026-05-04 13:18 52.98713 11.92167 22005 ft 424 kts 94°
2026-05-04 13:18 52.98604 11.96895 21233 ft 396 kts 95°
2026-05-04 13:19 52.98469 12.01337 20476 ft 376 kts 96°
2026-05-04 13:19 52.98340 12.05583 19727 ft 361 kts 96°
2026-05-04 13:19 52.98230 12.09628 19006 ft 349 kts 95°
2026-05-04 13:19 52.98121 12.13588 18297 ft 339 kts 96°
2026-05-04 13:20 52.98011 12.17445 17490 ft 331 kts 96°
2026-05-04 13:20 52.97897 12.21215 16808 ft 321 kts 96°
2026-05-04 13:20 52.97792 12.24852 16232 ft 309 kts 95°
2026-05-04 13:20 52.97687 12.28371 15670 ft 300 kts 95°
2026-05-04 13:21 52.97584 12.31784 15117 ft 293 kts 95°
2026-05-04 13:21 52.97484 12.35125 14577 ft 287 kts 95°
2026-05-04 13:21 52.97382 12.38398 14040 ft 281 kts 95°
2026-05-04 13:21 52.97284 12.41615 13482 ft 276 kts 95°
2026-05-04 13:22 52.97185 12.44773 12899 ft 272 kts 95°
2026-05-04 13:22 52.97087 12.47888 12330 ft 269 kts 95°
2026-05-04 13:22 52.96988 12.51007 11765 ft 282 kts 95°
2026-05-04 13:22 52.96879 12.54336 11236 ft 295 kts 95°
2026-05-04 13:23 52.96772 12.57787 10704 ft 303 kts 95°
2026-05-04 13:23 52.96657 12.61277 10165 ft 303 kts 95°
2026-05-04 13:23 52.96547 12.64766 9575 ft 302 kts 95°
2026-05-04 13:23 52.96427 12.68238 8930 ft 302 kts 95°
2026-05-04 13:24 52.96316 12.71699 8251 ft 298 kts 95°
2026-05-04 13:24 52.96196 12.75104 7573 ft 293 kts 95°
2026-05-04 13:24 52.96083 12.78451 6914 ft 289 kts 95°
2026-05-04 13:25 52.95848 12.84986 5572 ft 277 kts 95°
2026-05-04 13:25 52.95730 12.88148 4898 ft 273 kts 95°
2026-05-04 13:25 52.95474 12.91243 4221 ft 269 kts 103°
2026-05-04 13:25 52.95070 12.94208 3787 ft 258 kts 104°
2026-05-04 13:26 52.94662 12.97045 3406 ft 249 kts 105°
2026-05-04 13:26 52.94263 12.99794 3100 ft 240 kts 104°
2026-05-04 13:26 52.93874 13.02373 3012 ft 227 kts 105°
2026-05-04 13:26 52.93503 13.04877 2990 ft 216 kts 105°
2026-05-04 13:27 52.93147 13.07265 2991 ft 216 kts 104°
2026-05-04 13:27 52.92781 13.09677 2988 ft 216 kts 105°
2026-05-04 13:27 52.92390 13.12111 2990 ft 216 kts 110°
2026-05-04 13:27 52.91872 13.14205 2989 ft 215 kts 115°
2026-05-04 13:28 52.91291 13.16452 2987 ft 214 kts 115°
2026-05-04 13:28 52.90709 13.18708 2991 ft 212 kts 115°
2026-05-04 13:28 52.90118 13.20943 2990 ft 212 kts 115°
2026-05-04 13:28 52.89527 13.23194 2991 ft 214 kts 115°
2026-05-04 13:29 52.88948 13.25451 2997 ft 213 kts 115°
2026-05-04 13:29 52.88370 13.27698 2993 ft 212 kts 114°
2026-05-04 13:29 52.87782 13.29939 3002 ft 214 kts 115°
2026-05-04 13:29 52.87188 13.32212 3000 ft 216 kts 115°
2026-05-04 13:30 52.86584 13.34503 2999 ft 217 kts 115°
2026-05-04 13:30 52.85973 13.36793 2999 ft 217 kts 115°
2026-05-04 13:30 52.85363 13.39084 2997 ft 217 kts 115°
2026-05-04 13:30 52.84751 13.41354 2995 ft 215 kts 115°
2026-05-04 13:31 52.84141 13.43631 2784 ft 215 kts 115°
2026-05-04 13:31 52.83592 13.45881 2544 ft 203 kts 108°
2026-05-04 13:31 52.83239 13.48038 2315 ft 188 kts 106°
2026-05-04 13:31 52.82916 13.50086 2061 ft 180 kts 104°
2026-05-04 13:32 52.82606 13.52064 1810 ft 176 kts 105°
2026-05-04 13:32 52.82299 13.54019 1560 ft 176 kts 104°
2026-05-04 13:32 52.82005 13.55996 1311 ft 177 kts 102°
2026-05-04 13:32 52.81795 13.57914 1246 ft 165 kts 101°
2026-05-04 13:33 52.81617 13.59721 1199 ft 153 kts 95°
2026-05-04 13:33 52.81520 13.61404 1198 ft 139 kts 96°
2026-05-04 13:33 52.81428 13.62964 1178 ft 132 kts 93°
2026-05-04 13:33 52.81345 13.64411 1186 ft 123 kts 95°
2026-05-04 13:34 52.81257 13.65836 1190 ft 127 kts 101°
2026-05-04 13:34 52.81008 13.67244 1196 ft 127 kts 105°
2026-05-04 13:34 52.80795 13.68683 1190 ft 130 kts 106°
2026-05-04 13:34 52.80598 13.70098 1171 ft 123 kts 104°
2026-05-04 13:35 52.80395 13.71512 1058 ft 127 kts 106°
2026-05-04 13:35 52.80180 13.74291 954 ft 123 kts 57°
2026-05-04 13:35 52.80849 13.74870 986 ft 109 kts 12°
2026-05-04 13:36 52.81605 13.75189 1041 ft 111 kts 353°
2026-05-04 13:36 52.82162 13.74488 830 ft 103 kts 285°
2026-05-04 13:36 52.82311 13.73352 489 ft 100 kts 275°
2026-05-04 13:36 52.82409 13.72256 283 ft 93 kts 279°
2026-05-04 13:37 52.82519 13.71262 134 ft 83 kts 279°
2026-05-04 13:37 52.82613 13.70433 111 ft 57 kts 279°
2026-05-04 13:37 52.82655 13.70075 106 ft 15 kts 286°
2026-05-04 13:37 52.82651 13.70048 106 ft 1 kts 194°
2026-05-04 13:38 52.82639 13.70143 106 ft 22 kts 101°
2026-05-04 13:38 52.82603 13.70450 111 ft 27 kts 101°
2026-05-04 13:38 52.82570 13.70746 112 ft 25 kts 100°
2026-05-04 13:38 52.82547 13.70974 114 ft 21 kts 98°
2026-05-04 13:39 52.82541 13.71208 113 ft 19 kts 54°
2026-05-04 13:39 52.82620 13.71246 111 ft 11 kts
2026-05-04 13:39 52.82677 13.71246 114 ft 6 kts 310°
2026-05-04 13:39 52.82707 13.71165 114 ft 9 kts 302°
2026-05-04 13:40 52.82731 13.71153 114 ft 4 kts 346°
2026-05-04 13:40 52.82741 13.71118 114 ft 0 kts 221°
2026-05-04 13:40 52.82738 13.71117 114 ft 0 kts 191°